Sedalia, MO

9:33 PM CST on December 08, 2019 (GMT -0600)
Sedalia Memorial

Weather History for KDMO - October, 2019

Change the Weather History Date:

Tuesday, October 22, 2019

  Actual Average Record
Temperature  
Mean Temperature 51 °F 56 °F  
Max Temperature 59 °F 67 °F 86 °F (1963)
Min Temperature 43 °F 46 °F 20 °F (1982)
Degree Days  
Heating Degree Days 14 9  
Month to date heating degree days 224 148  
Since 1 July heating degree days 226 193  
Cooling Degree Days 0 1  
Month to date cooling degree days 22 32  
Year to date cooling degree days 1146 1482  
Growing Degree Days 2 (Base 50)    
Moisture  
Dew Point 32 °F    
Average Humidity 51    
Maximum Humidity 74    
Minimum Humidity 28    
Precipitation  
Precipitation 0.00 in 0.13 in 2.00 in (1972)
Month to date precipitation 3.48 2.80  
Year to date precipitation 41.56 34.85  
Sea Level Pressure  
Sea Level Pressure 29.95 in    
Wind  
Wind Speed 13 mph (WSW)    
Max Wind Speed 26 mph    
Max Gust Speed 39 mph    
Visibility 10 miles    
Events      
T = Trace of Precipitation, MM = Missing Value Source: NWS Daily Summary

Daily Weather History Graph

Daily Weather History Graph

Search for Another Location

Airport or City:

Astronomy

Oct. 22, 2019 Rise Set
Actual Time 7:28 AM CDT 6:24 PM CDT
Civil Twilight 7:01 AM CDT 6:51 PM CDT
Nautical Twilight 6:30 AM CDT 7:22 PM CDT
Astronomical Twilight 5:59 AM CDT 7:53 PM CDT
Moon 12:44 AM CDT (10/22) 3:29 PM CDT (10/22)
Length of Visible Light 11h 50m
Length of Day
10h 56m
Last Quarter, 37% of the Moon is Illuminated
Oct 22
Last Quarter
Oct 27
New
Nov 4
First Quarter
Nov 12
Full
Nov 19
Last Quarter

Hourly Weather History & Observations

Time (CDT) Temp. Windchill Dew Point Humidity Pressure Visibility Wind Dir Wind Speed Gust Speed Precip Events Conditions
12:53 AM 50.0 °F - 37.9 °F 63% 29.85 in 10.0 mi West 10.4 mph - N/A   Scattered Clouds
1:53 AM 48.9 °F - 37.9 °F 66% 29.85 in 10.0 mi West 12.7 mph 24.2 mph N/A   Partly Cloudy
2:53 AM 46.9 °F - 37.9 °F 71% 29.86 in 10.0 mi West 16.1 mph 24.2 mph N/A   Clear
3:53 AM 46.0 °F 40.6 °F 37.9 °F 73% 29.86 in 10.0 mi West 11.5 mph 21.9 mph N/A   Clear
4:53 AM 45.0 °F 39.7 °F 37.0 °F 74% 29.88 in 10.0 mi WSW 10.4 mph 23.0 mph N/A   Clear
5:53 AM 44.1 °F 38.6 °F 35.1 °F 71% 29.89 in 10.0 mi West 10.4 mph 21.9 mph N/A   Clear
6:53 AM 44.1 °F 37.4 °F 34.0 °F 68% 29.91 in 10.0 mi West 13.8 mph 24.2 mph N/A   Clear
7:53 AM 44.1 °F 37.4 °F 32.0 °F 63% 29.94 in 10.0 mi West 13.8 mph 24.2 mph N/A   Clear
8:53 AM 46.0 °F 40.2 °F 32.0 °F 58% 29.96 in 10.0 mi West 12.7 mph 23.0 mph N/A   Clear
9:53 AM 48.9 °F - 30.9 °F 50% 29.99 in 10.0 mi WNW 17.3 mph 28.8 mph N/A   Clear
10:53 AM 52.0 °F - 30.0 °F 43% 29.99 in 10.0 mi West 17.3 mph 27.6 mph N/A   Clear
11:53 AM 54.0 °F - 27.0 °F 35% 29.99 in 10.0 mi West 17.3 mph 33.4 mph N/A   Clear
1:53 PM 57.9 °F - 28.0 °F 32% 29.97 in 10.0 mi West 19.6 mph 31.1 mph N/A   Clear
2:53 PM 59.0 °F - 27.0 °F 29% 29.97 in 10.0 mi West 18.4 mph 32.2 mph N/A   Clear
3:53 PM 59.0 °F - 27.0 °F 29% 29.98 in 10.0 mi West 17.3 mph 32.2 mph N/A   Clear
4:53 PM 57.9 °F - 25.0 °F 28% 29.99 in 10.0 mi West 20.7 mph 32.2 mph N/A   Clear
5:53 PM 55.9 °F - 27.0 °F 33% 30.00 in 10.0 mi WNW 15.0 mph 25.3 mph N/A   Clear
6:53 PM 52.0 °F - 28.0 °F 40% 30.01 in 10.0 mi WSW 5.8 mph - N/A   Clear
7:53 PM 48.9 °F - 33.1 °F 54% 30.02 in 10.0 mi WSW 6.9 mph - N/A   Clear
8:53 PM 48.0 °F - 32.0 °F 54% 30.02 in 10.0 mi SW 8.1 mph - N/A   Clear
9:53 PM 46.0 °F 41.4 °F 34.0 °F 63% 30.01 in 10.0 mi SSW 9.2 mph - N/A   Clear
10:53 PM 45.0 °F 40.1 °F 34.0 °F 65% 30.01 in 10.0 mi SSW 9.2 mph - N/A   Clear
11:53 PM 44.1 °F 39.5 °F 35.1 °F 71% 29.99 in 10.0 mi SSW 8.1 mph - N/A   Clear